DW4998 Weather Reports


time (UTC)temp
C
wind
direction
speed
KPH
gust
KPH
rain 1hr
cm
rain 24hr
cm
rain mn
cm
humidity
%
barometer
mb
20260505224022 13 198 1.6 4.8 0.00 0.66 0.00 83 1006.7
20260505223044 13 148 3.2 6.4 0.00 0.66 0.00 82 1006.8
20260505222056 13 125 3.2 6.4 0.00 0.66 0.00 83 1006.7
20260505221028 13 238 3.2 8.0 0.00 0.66 0.00 82 1006.7
20260505220019 13 110 3.2 8.0 0.00 0.66 0.00 83 1006.7
20260505215042 13 90 1.6 6.4 0.00 0.66 0.66 84 1006.6
20260505214034 13 209 1.6 6.4 0.00 0.66 0.66 85 1006.6
20260505213026 13 148 1.6 8.0 0.00 0.66 0.66 87 1006.5
20260505212037 13 147 1.6 6.4 0.00 0.66 0.66 87 1006.6
20260505211039 13 142 3.2 4.8 0.00 0.66 0.66 86 1006.5
20260505210031 13 143 1.6 4.8 0.00 0.66 0.66 87 1006.6
20260505205022 14 65 0.0 3.2 0.00 0.66 0.66 86 1006.5
20260505204105 14 121 1.6 4.8 0.00 0.66 0.66 87 1006.3
20260505203035 14 134 1.6 4.8 0.00 0.66 0.66 87 1006.3
20260505202026 14 135 1.6 6.4 0.00 0.66 0.66 86 1006.3
20260505201017 14 129 3.2 8.0 0.00 0.66 0.66 86 1006.3
20260505200039 14 128 3.2 9.7 0.00 0.66 0.66 86 1006.3
20260505195030 13 138 1.6 4.8 0.00 0.66 0.66 88 1006.1
20260505194022 14 228 1.6 3.2 0.00 0.66 0.66 87 1006.1
20260505193044 13 147 3.2 4.8 0.00 0.66 0.66 88 1006.0
20260505192036 13 132 1.6 4.8 0.00 0.66 0.66 89 1006.0
20260505191028 14 143 1.6 3.2 0.00 0.66 0.66 89 1006.1
20260505190038 14 168 1.6 3.2 0.00 0.66 0.66 89 1005.9
20260505185040 14 261 1.6 4.8 0.00 0.66 0.66 90 1005.9
20260505184031 14 73 0.0 3.2 0.00 0.66 0.66 90 1005.9
20260505183023 14 137 1.6 3.2 0.00 0.66 0.66 92 1006.0
20260505182045 14 144 1.6 4.8 0.13 0.66 0.66 92 1006.0
20260505181036 14 171 0.0 3.2 0.28 0.66 0.66 92 1006.0
20260505180027 13 137 3.2 8.0 0.38 0.66 0.66 92 1005.9
20260505175059 13 184 3.2 6.4 0.38 0.66 0.66 91 1006.0
20260505174040 13 197 3.2 6.4 0.43 0.66 0.66 91 1006.0
20260505173052 14 235 4.8 8.0 0.48 0.66 0.66 90 1005.9
20260505172024 15 209 3.2 6.4 0.38 0.53 0.53 90 1005.9
20260505171045 15 204 6.4 12.9 0.23 0.38 0.38 89 1005.8
20260505170037 16 139 1.6 4.8 0.13 0.28 0.28 86 1005.5
20260505165028 16 153 0.0 3.2 0.10 0.28 0.28 79 1005.4
20260505164020 16 0.0 1.6 0.05 0.23 0.23 81 1005.3
20260505163041 16 346 0.0 3.2 0.03 0.18 0.18 77 1005.5
20260505162033 17 329 1.6 4.8 0.00 0.18 0.18 73 1005.6
20260505161025 17 312 1.6 4.8 0.00 0.18 0.18 73 1005.5
20260505153021 17 116 1.6 6.4 0.00 0.18 0.18 71 1005.4
20260505152123 17 331 1.6 6.4 0.00 0.18 0.18 69 1005.4
20260505151036 16 339 1.6 4.8 0.00 0.18 0.18 73 1005.4
20260505124029 16 136 0.0 3.2 0.05 0.15 0.15 75 1006.8
20260505123021 16 44 0.0 4.8 0.05 0.15 0.15 76 1006.9
20260505122043 16 9 0.0 3.2 0.05 0.15 0.15 77 1006.9
20260505121035 16 256 0.0 3.2 0.03 0.13 0.13 77 1007.1
20260505120026 16 56 0.0 3.2 0.03 0.13 0.13 76 1007.1
20260505115018 16 319 0.0 3.2 0.03 0.13 0.13 74 1007.1
20260505114100 17 322 1.6 3.2 0.00 0.10 0.10 72 1007.1
20260505113031 17 353 1.6 4.8 0.00 0.10 0.10 70 1007.1
20260505112023 17 339 3.2 8.0 0.00 0.10 0.10 69 1007.2
20260505111046 17 360 1.6 4.8 0.00 0.10 0.10 69 1007.2
20260505102037 17 352 3.2 8.0 0.00 0.10 0.10 67 1007.4
20260505101029 17 316 3.2 6.4 0.00 0.10 0.10 68 1007.4
20260505100020 16 251 3.2 6.4 0.00 0.10 0.10 71 1007.5
20260505095042 16 234 3.2 6.4 0.00 0.10 0.10 71 1007.7
20260505094054 16 186 1.6 4.8 0.03 0.10 0.10 71 1007.6
20260505093025 16 242 1.6 6.4 0.03 0.10 0.10 72 1007.6
20260505092017 15 225 1.6 4.8 0.05 0.10 0.10 77 1007.7
20260505091039 15 185 0.0 3.2 0.05 0.10 0.10 79 1007.8
20260505090030 15 81 0.0 1.6 0.08 0.10 0.10 80 1007.7
20260505085101 14 157 1.6 4.8 0.08 0.10 0.10 81 1007.7
20260505084043 14 103 1.6 3.2 0.08 0.08 0.08 82 1007.8
20260505083035 14 210 1.6 4.8 0.08 0.08 0.08 82 1007.9
20260505082027 14 336 0.0 3.2 0.05 0.05 0.05 81 1007.9
20260505081018 14 216 1.6 4.8 0.05 0.05 0.05 82 1008.0
20260505080040 13 231 1.6 6.4 0.03 0.03 0.03 83 1008.3
20260505075032 14 200 3.2 6.4 0.03 0.03 0.03 82 1008.3
20260505074043 14 212 3.2 6.4 0.00 0.00 0.00 79 1008.3
20260505073045 14 208 3.2 6.4 0.00 0.00 0.00 76 1008.4
20260505072036 14 220 1.6 3.2 0.00 0.00 0.00 76 1008.3
20260505071027 14 341 3.2 6.4 0.00 0.00 0.00 77 1008.3
20260505070019 13 198 3.2 6.4 0.00 0.00 0.00 78 1008.3
20260505065042 14 184 4.8 9.7 0.00 0.00 0.00 79 1008.4
20260505064033 14 205 3.2 8.0 0.00 0.00 0.00 76 1008.4
20260505063024 14 359 6.4 9.7 0.00 0.00 0.00 79 1008.2
20260505062131 13 328 3.2 8.0 0.00 0.00 0.00 79 1008.2
20260505061038 13 331 3.2 6.4 0.00 0.00 0.00 79 1008.3
20260505060029 13 261 1.6 6.4 0.00 0.00 0.00 79 1008.2
20260505055021 13 343 3.2 6.4 0.00 0.00 0.00 81 1008.0
20260505054036 13 339 4.8 6.4 0.00 0.00 0.00 81 1008.1
20260505053028 13 14 1.6 6.4 0.00 0.00 0.00 81 1008.1
20260505052019 12 360 3.2 6.4 0.00 0.00 0.00 82 1008.1
20260505051101 12 72 3.2 4.8 0.00 0.00 0.00 83 1008.3
20260505041019 12 161 3.2 6.4 0.00 0.00 0.00 84 1008.3
20260505040041 11 193 1.6 6.4 0.00 0.00 0.00 86 1008.1
20260505035053 11 315 3.2 6.4 0.00 0.00 0.00 86 1008.2
20260505034023 11 331 3.2 6.4 0.00 0.00 0.00 85 1008.2
20260505033106 11 232 1.6 4.8 0.00 0.00 0.00 84 1008.2
20260505032057 12 344 1.6 6.4 0.00 0.00 0.00 83 1008.2
20260505031028 12 0 6.4 11.3 0.00 0.00 0.00 83 1008.4
20260505030020 12 346 3.2 9.7 0.00 0.00 0.00 84 1008.4
20260505025042 12 57 1.6 6.4 0.00 0.00 0.00 84 1008.5
20260505024054 12 240 3.2 8.0 0.00 0.00 0.00 84 1008.5
20260505023026 12 359 1.6 6.4 0.00 0.00 0.00 85 1008.7
20260505022037 12 177 1.6 6.4 0.00 0.00 0.00 83 1009.0
20260505021039 12 327 1.6 6.4 0.00 0.00 0.00 82 1009.1
20260505020051 13 2 4.8 8.0 0.00 0.00 0.00 81 1009.2
20260505015023 13 13 4.8 9.7 0.00 0.00 0.00 81 1009.3
20260505014045 13 16 1.6 4.8 0.00 0.00 0.00 79 1009.3
20260505013037 13 159 4.8 8.0 0.00 0.00 0.00 79 1009.3
20260505012029 13 187 3.2 4.8 0.00 0.00 0.00 79 1009.4
20260505011021 13 295 1.6 3.2 0.00 0.00 0.00 78 1009.4
20260505010042 13 0.0 0.0 0.00 0.00 0.00 78 1009.5
20260505005034 13 0.0 0.0 0.00 0.00 0.00 77 1009.6
20260505004025 13 0.0 0.0 0.00 0.00 0.00 77 1009.8
20260505003017 14 0.0 0.0 0.00 0.00 0.00 78 1010.0
20260505002040 14 0.0 0.0 0.00 0.00 0.00 77 1010.1
20260505001053 14 0.0 1.6 0.00 0.00 0.00 77 1010.1
20260505000044 14 0.0 0.0 0.00 0.00 0.00 78 1010.1
20260504234956 14 0.0 0.0 0.00 0.00 0.00 77 1010.2
20260504234046 14 0.0 1.6 0.00 0.00 0.00 77 1010.4
20260504233018 15 0.0 0.0 0.00 0.00 0.00 76 1010.4
20260504232040 15 0.0 0.0 0.00 0.00 0.00 75 1010.4
20260504231032 15 0.0 1.6 0.00 0.00 0.00 73 1010.6
20260504230023 15 0.0 0.0 0.00 0.00 0.00 73 1010.3
20260504225046 15 316 0.0 1.6 0.00 0.00 0.00 72 1010.5